RH
20 15 17 12 10 11 12 12 11 10 10 11 10 8 8 7 8 8 8 9 8 8 7 6 6 6 9 12 14 18 21 22 27 18 14 18 22 18 16 16 13 24 12 10 11
15 17 19 17 15 13 14 11 9 7 8 8 8 8 7 6 8 9 8 9 9 8 7 6 6 6 10 16 14 23 39 52 31 28 21 21 22 18 18 21 78 100 75 13 12
8 9 12 13 13 10 8 6 5 6 6 6 7 7 7 7 7 10 8 9 9 9 8 7 7 7 9 15 14 25 88 100 100 100 78 36 20 19 18 15 98 100 52 14 13
10 9 8 8 8 7 6 6 6 6 6 7 6 7 7 8 8 9 8 10 9 10 9 7 7 7 8 14 15 24 27 31 95 99 88 54 20 22 20 17 16 32 16 16 12
15 14 13 13 12 11 13 13 10 9 9 8 9 8 8 8 8 8 8 9 10 9 10 9 9 8 8 9 13 19 23 26 27 25 24 23 23 22 23 24 24 24 19 15 12
21 20 19 19 18 17 18 17 17 15 14 16 14 12 12 12 11 10 9 9 11 12 11 10 11 12 11 9 10 12 14 19 22 23 24 26 29 32 29 26 24 20 19 15 13
23 24 22 21 19 18 19 21 22 21 18 20 19 20 19 14 15 14 14 12 12 15 13 15 15 13 13 14 14 11 11 12 12 15 17 26 37 74 52 60 25 16 12 11 12
22 21 22 22 20 19 18 19 22 22 21 20 20 20 24 31 36 35 34 23 19 19 19 18 15 15 14 14 14 12 12 13 13 14 15 16 28 66 51 26 16 13 11 12 12
27 23 20 20 20 19 19 20 20 24 26 26 22 24 30 75 91 50 49 100 80 91 78 31 22 18 15 16 14 14 14 16 21 17 17 16 20 28 24 25 20 14 11 10 12
26 25 22 21 22 20 23 26 25 29 28 30 28 32 35 88 88 83 100 90 79 55 100 49 38 43 22 16 16 19 18 24 22 22 20 24 30 28 25 21 17 14 13 11 11
44 45 32 32 32 31 26 30 28 25 41 44 46 64 52 100 100 100 100 100 66 82 67 36 27 21 19 18 17 17 20 23 27 27 33 40 34 31 26 26 21 18 16 16 14
100 86 57 54 50 46 41 32 48 56 50 55 47 87 100 100 100 100 100 87 53 56 40 26 21 20 22 20 20 21 22 22 22 29 29 34 34 31 31 40 31 23 23 21 18
64 76 87 90 62 60 52 50 57 78 60 58 50 63 100 100 100 96 77 50 51 47 31 23 22 25 21 22 21 23 22 22 25 41 25 38 34 48 71 57 35 27 20 20 27
62 80 99 81 85 77 70 78 76 92 71 59 60 54 98 100 91 63 60 40 42 36 30 23 22 22 22 22 22 20 31 23 24 25 25 31 48 21 26 24 44 23 18 25 30
60 65 86 100 90 70 99 100 97 98 79 66 60 64 55 70 84 76 50 41 38 33 29 22 24 23 22 23 25 23 28 25 24 25 26 27 31 33 20 28 72 34 35 24 35
77 70 78 95 96 95 99 100 100 100 83 70 73 73 63 63 56 48 54 41 38 33 27 23 24 23 22 25 25 27 28 26 25 25 25 28 40 79 18 40 99 47 28 23 23
99 76 92 79 95 96 100 100 100 100 100 70 94 78 76 60 58 52 49 41 37 29 25 25 25 25 25 25 27 28 28 28 25 26 25 44 100 96 31 27 26 21 21 22 20
100 94 92 78 90 99 98 93 84 97 99 67 93 92 99 97 76 73 60 59 53 47 35 31 28 26 26 30 29 30 29 29 26 28 24 25 51 39 58 30 33 25 21 21 19
100 100 76 83 85 79 74 61 81 100 98 58 86 99 92 91 86 80 72 65 61 60 54 51 44 31 44 38 35 32 32 29 28 29 27 28 37 44 39 74 57 26 23 21 21
100 100 77 70 86 86 73 90 100 64 50 44 96 100 88 81 80 70 71 72 64 66 64 56 50 40 45 43 42 35 34 32 29 27 24 31 42 68 100 100 95 50 24 25 25
100 100 98 82 78 100 100 100 98 93 96 100 100 73 74 70 65 65 65 67 61 59 59 53 50 44 48 60 48 40 35 32 28 26 26 31 45 83 98 100 100 58 25 28 27
100 100 100 92 100 100 100 100 89 100 100 100 95 98 96 87 76 73 62 59 53 55 52 53 53 50 44 50 40 33 30 27 31 31 30 34 34 72 90 90 41 56 26 25 28
70 100 100 98 100 100 100 100 100 100 100 97 90 82 74 62 61 38 37 37 57 100 63 50 47 74 38 35 31 28 32 39 38 36 39 34 98 98 59 38 40 60 40 26 25
74 92 100 100 98 90 89 100 100 100 100 100 92 76 62 47 35 31 46 75 92 100 94 93 82 46 49 32 33 50 74 46 41 45 46 33 46 65 51 44 99 97 100 28 26
86 66 99 100 96 95 94 100 100 95 74 88 94 82 61 40 31 32 100 100 100 100 99 100 95 59 92 56 69 71 75 63 50 42 36 31 25 58 76 100 100 100 95 67 27
94 77 100 100 99 96 100 100 100 95 100 100 92 100 74 48 40 54 100 100 86 100 100 100 100 98 99 98 76 66 55 58 43 37 33 26 34 99 55 99 100 100 99 86 90
86 97 95 79 99 95 93 100 100 100 71 62 66 92 100 63 41 47 64 100 100 96 100 100 100 100 100 98 60 53 85 76 48 39 33 30 38 62 96 100 99 100 99 84 84
Wind_Speed
83 81 77 79 80 83 79 77 76 74 71 70 66 62 57 52 48 47 41 42 39 38 37 35 33 29 30 31 31 31 32 39 46 48 46 39 37 36 35 36 37 41 38 35 35
88 84 84 81 81 83 80 77 74 67 69 66 61 59 52 50 48 44 42 42 39 37 36 34 34 30 28 31 31 27 26 37 42 42 42 41 38 38 37 33 31 24 26 36 36
77 78 80 82 81 79 75 73 69 68 64 62 57 56 52 49 47 46 42 41 40 39 37 35 33 31 29 29 29 28 22 31 28 30 31 35 39 41 40 33 30 30 44 43 37
76 77 77 76 76 75 76 73 73 69 66 60 61 58 55 49 50 47 45 42 42 40 38 36 33 32 30 29 29 31 34 39 46 45 47 47 42 42 42 41 38 44 46 43 39
63 64 66 66 69 69 66 64 63 61 62 60 57 59 57 52 52 49 47 45 44 42 41 36 34 33 32 32 32 32 36 39 43 47 47 47 44 43 41 40 41 41 41 39 36
54 56 56 57 58 57 57 58 57 55 53 49 48 54 50 52 52 50 49 48 47 44 42 41 37 35 35 36 34 35 37 38 40 43 45 44 40 41 42 43 45 43 40 37 34
54 54 55 53 55 54 53 52 50 48 47 47 45 47 48 52 51 49 50 48 47 44 43 41 38 36 38 38 38 39 38 40 40 41 41 40 39 42 42 39 43 44 39 34 33
55 55 54 54 55 54 54 54 50 49 48 46 47 46 49 48 50 48 45 44 44 42 42 40 36 37 37 36 38 38 38 39 39 40 41 40 41 40 46 49 47 43 37 33 32
53 54 55 55 57 56 55 55 54 52 51 49 49 47 50 50 47 45 39 40 35 34 35 37 35 35 36 37 36 34 35 34 35 39 38 39 40 41 45 46 46 44 41 34 31
46 48 51 54 55 54 53 55 53 52 50 50 50 47 46 42 39 39 40 43 38 38 35 36 34 35 36 34 32 31 29 30 34 37 36 36 37 41 42 45 43 44 42 39 33
41 41 44 49 51 53 53 53 52 50 51 49 47 41 42 44 42 42 39 39 40 40 39 37 34 33 31 30 30 29 28 29 31 33 33 35 37 38 40 42 42 40 38 36 33
40 43 41 42 46 49 50 50 50 50 51 49 49 44 42 46 47 48 47 46 43 40 38 37 34 32 32 30 29 28 26 27 29 30 31 33 36 35 38 40 40 35 38 33 28
39 42 40 41 41 44 46 48 49 49 50 49 50 47 53 54 52 52 49 46 42 40 40 38 34 35 30 30 27 26 26 26 27 29 32 33 37 33 36 42 42 41 33 29 26
35 40 42 37 37 42 43 46 46 48 48 47 47 43 54 57 52 48 47 44 40 40 40 39 37 35 32 31 29 28 26 28 30 31 34 31 36 40 38 39 41 39 31 24 23
31 37 42 43 39 38 43 42 45 46 46 51 46 43 47 53 55 51 45 43 42 41 42 41 38 36 35 31 29 29 30 29 31 32 32 34 34 41 37 33 27 28 31 23 24
29 35 41 39 38 40 39 40 37 37 42 43 41 43 43 46 47 45 44 43 42 42 42 41 39 38 36 34 33 32 33 33 34 32 33 33 32 38 29 12 28 38 28 29 28
32 32 40 40 38 42 42 41 40 35 38 39 42 44 43 42 43 42 42 41 42 41 41 41 40 39 38 37 36 34 34 35 34 33 34 24 26 39 37 23 31 37 26 28 28
35 32 38 40 44 46 48 45 42 39 41 43 40 44 43 44 43 42 41 41 40 41 41 41 41 40 37 37 38 37 38 36 34 34 35 28 26 26 30 34 35 41 29 26 26
36 36 38 42 43 44 44 39 43 51 52 42 40 45 46 47 46 45 44 45 44 43 42 42 41 40 38 41 40 39 39 39 36 35 29 27 24 29 23 34 39 37 34 27 24
38 37 40 41 38 39 38 42 47 45 35 28 42 49 48 49 48 47 46 47 47 46 46 45 43 42 42 43 41 40 40 40 39 34 28 25 21 13 8 20 47 43 30 28 26
42 39 38 40 37 33 35 41 43 39 40 39 43 40 40 41 40 42 43 48 47 48 49 49 47 49 40 46 45 41 43 41 40 33 28 25 16 7 13 17 38 46 33 28 25
48 43 43 46 43 45 45 44 48 44 45 42 39 34 38 39 40 44 47 52 50 53 52 54 53 53 48 47 48 44 45 41 37 32 28 24 19 20 31 38 49 39 40 27 24
53 49 48 52 48 48 43 38 58 60 51 42 38 39 40 39 41 50 53 51 44 52 52 51 48 45 49 45 45 40 39 36 32 30 29 21 13 8 19 27 32 31 28 27 23
58 58 54 53 53 46 40 38 44 43 36 34 35 34 37 39 44 49 48 43 46 46 37 35 37 41 39 37 36 32 34 35 30 30 33 28 29 24 9 15 15 26 32 27 26
65 63 57 56 56 53 47 44 42 41 41 34 35 36 36 35 35 41 45 50 51 46 42 36 39 33 34 28 30 31 32 35 34 33 32 32 16 11 11 18 20 30 33 23 28
69 64 65 61 59 58 53 48 46 44 39 38 37 33 30 28 22 31 47 42 36 39 37 32 30 29 30 31 28 30 29 29 33 30 31 23 18 27 21 23 17 37 44 41 41
77 72 71 65 66 64 63 59 55 52 47 44 40 37 32 25 21 13 21 39 34 40 42 39 36 33 31 31 29 21 22 22 26 23 26 21 31 25 23 21 34 52 54 44 43
Wind_Direction
258 256 257 255 256 260 263 266 267 268 267 268 269 273 274 274 268 269 268 265 263 264 265 268 271 274 268 263 259 254 253 257 260 267 272 273 277 281 286 292 300 300 292 299 305
256 259 259 257 257 260 264 265 265 265 266 266 267 266 267 268 266 263 262 261 260 260 263 266 271 273 264 259 266 263 271 272 267 266 268 272 274 279 285 300 301 301 300 303 305
255 257 257 259 259 259 260 260 261 261 261 263 262 260 262 262 262 261 261 257 257 257 258 261 263 266 265 263 263 256 227 244 259 266 270 275 279 280 281 280 264 278 295 299 302
252 254 254 256 257 257 259 257 257 259 259 257 257 259 260 257 256 256 257 258 258 256 258 258 258 262 263 260 261 253 251 250 252 258 266 278 279 278 280 279 272 272 288 296 299
249 250 251 251 253 254 254 253 253 252 254 253 253 255 255 253 252 253 255 255 255 255 258 260 260 261 262 259 259 260 259 258 258 261 266 273 277 279 280 281 282 284 289 293 295
245 246 246 246 246 247 249 249 249 247 248 245 246 247 246 245 246 247 248 249 250 252 254 258 258 259 260 260 260 260 261 262 263 266 268 273 275 276 280 281 282 284 286 290 291
246 246 245 245 247 246 244 243 244 241 240 238 237 239 238 239 243 242 243 245 248 249 252 256 258 260 262 262 261 260 262 265 267 268 268 268 270 275 278 280 281 284 285 288 288
247 247 246 244 244 244 241 241 239 237 236 234 235 234 234 238 238 237 240 243 247 248 250 254 260 262 263 263 263 263 265 267 270 270 269 269 266 267 274 281 285 286 286 289 286
245 245 245 244 244 243 240 238 237 236 235 233 230 232 232 230 236 241 240 238 239 246 256 256 259 258 259 263 264 265 268 269 271 269 273 274 276 278 280 283 285 287 288 291 286
243 244 244 243 240 240 236 235 233 231 233 231 230 230 232 231 235 239 229 238 239 239 243 253 253 256 261 264 265 266 270 268 268 273 278 280 281 282 284 286 288 291 293 292 289
244 245 247 242 237 234 233 232 230 231 227 226 227 224 227 223 228 231 228 237 235 235 241 251 251 255 258 264 267 269 270 269 269 274 279 281 284 288 290 292 295 298 299 299 297
241 249 250 243 235 230 228 228 228 226 223 223 220 216 218 217 222 229 233 239 242 239 243 245 246 254 258 262 265 267 268 271 274 278 280 285 287 293 295 298 300 304 304 303 296
240 244 246 238 235 228 227 224 226 222 225 222 220 215 217 221 225 230 237 243 241 239 239 243 246 250 256 258 261 267 272 278 279 277 281 283 288 291 295 297 304 305 307 302 295
244 240 236 235 232 225 223 224 222 220 223 217 220 223 221 225 232 234 239 239 236 236 237 241 242 248 251 255 260 266 271 272 278 280 283 285 284 291 294 298 301 306 310 303 290
245 235 227 233 232 224 220 218 218 218 219 217 220 225 227 227 232 235 236 236 235 236 238 241 242 248 250 253 258 264 269 276 282 286 287 287 290 294 301 321 312 310 303 307 291
244 232 224 226 228 216 213 214 215 224 225 218 220 225 226 230 231 233 233 233 235 237 238 241 242 247 249 250 257 265 272 277 282 290 289 288 293 297 309 314 231 293 309 305 299
238 234 225 225 218 211 211 213 212 214 224 214 220 226 228 228 229 231 232 234 235 238 239 240 243 246 248 252 258 266 275 275 280 288 287 287 282 290 303 299 298 300 303 299 301
235 240 225 222 219 212 210 212 215 215 225 223 222 226 225 225 226 228 230 234 237 239 241 241 241 244 252 257 261 267 272 275 278 288 288 281 266 294 303 306 308 305 306 301 300
234 236 224 219 218 216 217 217 216 218 220 222 221 227 229 228 229 230 231 235 237 240 243 245 247 248 256 257 262 266 271 273 277 281 281 279 274 279 295 323 305 304 307 305 297
229 233 222 215 219 220 212 216 222 222 225 217 228 229 231 232 231 233 236 241 240 242 245 249 252 251 253 261 264 267 269 272 276 281 278 266 280 328 352 297 306 303 309 305 300
222 225 220 208 196 211 218 219 219 220 225 228 223 226 228 231 231 237 240 243 245 247 250 251 254 256 254 263 265 270 269 270 277 278 267 258 267 134 115 149 273 294 305 301 304
217 218 219 206 214 222 230 239 233 230 239 228 225 226 233 236 238 244 246 246 247 250 249 253 254 260 258 264 268 267 267 271 270 267 262 262 270 224 200 217 271 283 294 297 301
217 216 217 217 222 226 229 241 227 228 225 219 227 234 241 247 245 247 249 250 247 249 252 254 255 258 262 262 264 266 265 262 260 259 258 253 221 210 245 281 279 287 305 300 298
218 217 219 218 221 224 227 231 218 213 216 221 230 238 243 246 249 249 249 249 237 239 249 254 257 259 258 257 255 253 259 264 261 255 253 249 239 261 270 296 274 278 299 297 294
221 217 221 220 218 219 224 220 216 215 227 226 232 235 245 254 261 248 236 243 229 235 226 235 250 251 247 241 247 249 257 263 262 258 256 253 248 197 193 227 232 274 270 301 297
222 219 221 221 220 220 219 218 223 218 218 223 232 242 246 257 261 232 222 236 213 225 222 227 246 237 236 245 242 253 260 265 260 256 254 246 194 159 176 183 224 270 267 266 284
220 221 221 220 222 222 222 220 223 227 225 228 229 241 246 248 272 274 234 232 237 238 221 228 232 242 234 243 250 253 258 257 256 245 244 223 200 180 168 137 229 250 263 273 282